User: anonymous   Login
Location: Unspecified
(0.0000°N, 0.0000°E)
Time: 01:11:01
(UTC+01:00)
Language:

ITAMSAT 1 - Orbit

View from above orbital plane
View from above orbital plane
View from above satellite
View from above satellite

Ground track
Ground track

The orbit data is extracted from the following two-line orbital elements,

1 22826U 93061D   17326.52819134  .00000011  00000-0  21980-4 0  9997
2 22826  98.8291 294.2892 0008239 214.2556 145.8095 14.30344194260218
Epoch (UTC): 22 November 2017 12:40:35
Eccentricity: 0.0008239
inclination: 98.8291°
perigee height: 784 km
apogee height: 796 km
right ascension of ascending node: 294.2892°
argument of perigee: 214.2556°
revolutions per day: 14.30344194
mean anomaly at epoch: 145.8095°
orbit number at epoch: 26021

The dashed part of the orbit path shows where the satellite is in the earth's shadow,  

DLR